Regional Weather Roundup
Issued by NWS

Home | Current Version | Previous Version | Graphics & Text | Print | Product List | Glossary On
Versions: 1 2 3 4 5 6 7 8 9 10 11 12 13 14 15 16 17 18 19 20 21 22 23 24 25 26 27 28 29 30 31 32 33 34 35 36 37 38 39 40 41 42 43 44 45 46 47 48 49 50
000
ASUS43 KFSD 130202
RWRSD

WEATHER ROUNDUP FOR SOUTH DAKOTA
NATIONAL WEATHER SERVICE SIOUX FALLS SD
800 PM CST TUE DEC 12 2017

NOTE: "FAIR" INDICATES FEW OR NO CLOUDS BELOW 12,000 FEET WITH NO
SIGNIFICANT WEATHER AND/OR OBSTRUCTIONS TO VISIBILITY.


SDZ001>005-009-010-012>017-130300-
NORTHWEST AND NORTH CENTRAL SOUTH DAKOTA

CITY           SKY/WX    TMP DP  RH WIND       PRES   REMARKS
BUFFALO          N/A     52  14  22 NW25G36   29.78R
FAITH            N/A     45  20  36 W14       29.77F
MOBRIDGE       CLOUDY    44  25  47 NW6       29.67F
$$

SDZ012>016-024>037-041>051-057-063-072>074-130300-
SOUTHWEST AND SOUTH CENTRAL SOUTH DAKOTA

CITY           SKY/WX    TMP DP  RH WIND       PRES   REMARKS
RAPID CTY ARPT CLOUDY    43  10  26 S3        29.88F
PIERRE         CLOUDY    47  24  40 W14       29.75F
CUSTER         CLOUDY    49   9  19 W16G26    29.97F
ELLSWORTH AFB  CLOUDY    51   9  18 NW18      29.86F
PHILIP         PTCLDY    42  21  43 W8        29.83F
PINE RIDGE     CLEAR     38  23  55 SW6       29.93S
SPEARFISH      FAIR      57  10  15 W23G31    29.93S
WINNER         FAIR      44  23  43 SW10      29.80F
$$

SDZ004>011-016>023-039-040-130300-
NORTHEAST SOUTH DAKOTA

CITY           SKY/WX    TMP DP  RH WIND       PRES   REMARKS
ABERDEEN       PTCLDY    35  27  72 SW10      29.67F WCI  27
WATERTOWN      CLOUDY    31  26  82 S8        29.70F WCI  23
BROOKINGS      CLEAR     35  27  72 SW8       29.73  WCI  29
SISSETON         N/A     43  27  53 SW18G28   29.62F
$$

SDZ017-020-022-023-036>040-048>070-130300-
SOUTHEAST SOUTH DAKOTA

CITY           SKY/WX    TMP DP  RH WIND       PRES   REMARKS
SIOUX FALLS    CLEAR     38  28  67 SW7       29.76F
HURON          CLOUDY    35  24  64 S7        29.73F WCI  29
CHAMBERLAIN    CLEAR     46  23  41 SW7       29.77F
MITCHELL       CLEAR     40  25  55 SW8       29.76F
$$

ABBREVIATIONS USED IN REMARKS
   TC - TEMPERATURE IN CELSIUS
  WCI - WIND CHILL INDEX
   HX - HEAT INDEX
  VSB - VISIBILITY




USA.gov is the U.S. government's official web portal to all federal, state and local government web resources and services.